Stations météo

réclame
Mon MeteoGroup
Eskilstuna, Suède (2449): Température de l'air & dewpoint: 18.05.2019 05:00:00 - 24.05.2019 05:00:00 (CEST)Eskilstuna, Suède (2449): Vitesse du vent & gusts: 18.05.2019 05:00:00 - 24.05.2019 05:00:00 (CEST)Eskilstuna, Suède (2449): Direction du vent: 18.05.2019 05:00:00 - 24.05.2019 05:00:00 (CEST)Eskilstuna, Suède (2449): reduced air pressure: 18.05.2019 05:00:00 - 24.05.2019 05:00:00 (CEST)Eskilstuna, Suède (2449): visibility: 18.05.2019 05:00:00 - 24.05.2019 05:00:00 (CEST)Eskilstuna, Suède (2449): Quantités de précipitations: 18.05.2019 05:00:00 - 24.05.2019 05:00:00 (CEST)
Date & Time tt [°C] td [°C] ff [km/h] ff [knt] fx [km/h] fx [knt] dd ppp [hPa] vv [km] rr [mm]
24.05.2019 05:00:00 - - - - - - - - - -
24.05.2019 04:00:00 6,2 3,7 0 0 5 3 N 1009,9 14 0,0
24.05.2019 03:00:00 6,7 3,8 0 0 4 2 N 1010,3 19 0,0
24.05.2019 02:00:00 7,7 4,8 0 0 3 2 N 1010,8 49 0,0
24.05.2019 01:00:00 7,6 4,7 0 0 5 3 N 1011,1 46 0,0
24.05.2019 00:00:00 8,3 5,4 4 2 6 4 WSW 1011,5 50 0,0
23.05.2019 23:00:00 9,2 5,4 0 0 8 4 N 1011,6 50 0,0
23.05.2019 22:00:00 12,7 5,6 6 3 15 8 WSW 1011,5 50 0,0
23.05.2019 21:00:00 14,5 6,1 7 4 19 11 WSW 1011,4 50 0,0
23.05.2019 20:00:00 15,6 6,1 6 3 26 14 SW 1011,3 42 0,0
23.05.2019 19:00:00 16,1 6,5 19 10 32 18 WSW 1011,2 47 0,0
23.05.2019 18:00:00 16,9 7,5 21 12 32 18 WSW 1011,3 36 0,0
23.05.2019 17:00:00 17,2 7,0 19 10 32 17 WSW 1011,3 35 0,0
23.05.2019 16:00:00 17,6 7,9 17 9 28 15 WSW 1011,4 24 0,0
23.05.2019 15:00:00 16,8 8,7 18 10 28 15 WSW 1011,8 19 0,0
23.05.2019 14:00:00 15,5 9,8 16 9 26 14 W 1012,2 39 0,0
23.05.2019 13:00:00 14,1 10,1 16 9 26 14 W 1012,1 34 0,0
23.05.2019 12:00:00 11,8 9,7 11 6 19 10 WSW 1012,2 20 0,1
23.05.2019 11:00:00 11,4 9,1 9 5 18 10 W 1011,9 18 0,7
23.05.2019 10:00:00 11,1 9,2 12 6 22 12 W 1011,8 10 1,2
23.05.2019 09:00:00 11,3 9,4 12 7 21 11 W 1011,6 12 1,4
23.05.2019 08:00:00 11,2 9,6 14 7 22 12 WSW 1011,4 7 -
23.05.2019 07:00:00 11,6 10,0 21 12 32 18 W 1011,0 4,7 2,5
23.05.2019 06:00:00 13,5 11,7 11 6 17 9 WSW 1010,2 6 0,4
23.05.2019 05:00:00 13,6 10,0 4 2 9 5 WSW 1010,2 26 0,0
23.05.2019 04:00:00 13,3 8,8 0 0 4 2 N 1010,2 38 0,0
23.05.2019 03:00:00 13,0 7,9 0 0 7 4 N 1010,3 44 0,0
23.05.2019 02:00:00 13,9 7,9 4 2 14 8 E 1010,0 50 0,0
23.05.2019 01:00:00 13,8 7,8 7 4 13 7 E 1010,1 47 0,0
23.05.2019 00:00:00 16,0 8,2 9 5 16 8 ENE 1010,1 27 0,0
22.05.2019 23:00:00 17,5 8,8 4 2 11 6 NE 1010,6 29 0,0
22.05.2019 22:00:00 18,9 9,5 10 5 16 9 E 1010,6 12 0,0
22.05.2019 21:00:00 19,7 9,9 14 7 28 15 E 1010,0 11 0,0
22.05.2019 20:00:00 21,7 11,1 16 9 28 15 E 1008,9 36 0,0
22.05.2019 19:00:00 23,4 12,4 17 9 30 16 ENE 1008,7 15 0,0
22.05.2019 18:00:00 24,6 12,2 15 8 22 12 ENE 1008,5 15 0,0
22.05.2019 17:00:00 25,2 12,1 11 6 22 12 ENE 1008,9 14 0,0
22.05.2019 16:00:00 25,2 12,8 10 5 23 13 ENE 1009,4 17 0,0
22.05.2019 15:00:00 24,6 12,2 11 6 21 11 NE 1009,9 14 0,0
22.05.2019 14:00:00 23,6 12,3 9 5 18 10 NE 1010,3 30 0,0
22.05.2019 13:00:00 22,4 11,8 11 6 21 12 E 1010,7 27 0,0
22.05.2019 12:00:00 21,6 11,9 9 5 18 10 ENE 1010,8 17 0,0
22.05.2019 11:00:00 19,8 11,0 9 5 21 11 NE 1011,1 14 0,0
22.05.2019 10:00:00 18,3 10,4 9 5 22 12 NE 1011,0 29 0,0
22.05.2019 09:00:00 16,7 10,1 13 7 21 11 ENE 1011,0 18 0,0
22.05.2019 08:00:00 15,0 9,4 12 6 23 12 ENE 1010,9 22 0,0
22.05.2019 07:00:00 14,7 9,5 7 4 18 10 NE 1011,0 28 0,0
22.05.2019 06:00:00 13,6 9,6 9 5 13 7 ENE 1010,9 35 0,0
22.05.2019 05:00:00 13,3 9,9 6 3 10 6 NE 1010,7 26 0,0
22.05.2019 04:00:00 13,5 10,1 4 2 6 4 ENE 1010,7 27 0,0
22.05.2019 03:00:00 12,8 9,8 0 0 3 2 N 1010,7 6 0,0
22.05.2019 02:00:00 12,6 8,7 0 0 5 3 N 1010,8 14 0,0
22.05.2019 01:00:00 15,5 10,3 4 2 7 4 ENE 1011,1 17 0,0
22.05.2019 00:00:00 16,5 10,6 6 3 13 7 E 1011,1 12 0,0
21.05.2019 23:00:00 17,2 10,8 7 4 12 6 E 1010,9 15 0,0
21.05.2019 22:00:00 19,3 11,3 4 2 18 10 E 1010,6 33 0,0
21.05.2019 21:00:00 21,8 11,8 9 5 24 13 ESE 1009,9 40 0,0
21.05.2019 20:00:00 22,7 12,9 14 7 29 15 E 1009,7 36 0,0
21.05.2019 19:00:00 23,9 12,8 16 9 27 15 E 1009,5 31 0,0
21.05.2019 18:00:00 24,6 13,2 14 8 28 15 E 1009,4 30 0,0
21.05.2019 17:00:00 24,6 12,5 10 5 16 9 E 1009,7 20 0,0
21.05.2019 16:00:00 23,6 12,3 6 3 15 8 ESE 1010,1 24 0,0
21.05.2019 15:00:00 23,1 11,8 9 5 21 12 E 1010,2 29 0,0
21.05.2019 14:00:00 23,5 12,5 11 6 22 12 E 1010,3 18 0,0
21.05.2019 13:00:00 22,9 11,6 13 7 23 12 ENE 1010,4 24 0,0
21.05.2019 12:00:00 21,7 11,4 10 6 22 12 ENE 1010,7 25 0,0
21.05.2019 11:00:00 20,5 12,0 11 6 22 12 ENE 1010,9 17 0,0
21.05.2019 10:00:00 18,4 11,0 12 6 20 11 NE 1010,9 25 0,0
21.05.2019 09:00:00 16,8 11,1 11 6 21 12 ENE 1011,0 16 0,0
21.05.2019 08:00:00 14,0 10,2 8 4 12 7 NNE 1010,8 32 0,0
21.05.2019 07:00:00 13,7 9,7 8 4 15 8 NNE 1010,6 32 0,0
21.05.2019 06:00:00 13,2 9,8 7 4 14 8 NE 1010,5 36 0,0
21.05.2019 05:00:00 12,9 9,9 5 3 12 6 NE 1010,4 26 0,0
21.05.2019 04:00:00 13,2 10,4 5 3 9 5 NNE 1010,4 16 0,0
21.05.2019 03:00:00 12,9 10,4 2 1 5 3 NE 1010,7 2,5 0,0
21.05.2019 02:00:00 12,5 10,6 3 1 5 3 NE 1010,7 - 0,0
21.05.2019 01:00:00 11,4 8,4 0 0 3 1 N 1011,1 - 0,0
21.05.2019 00:00:00 11,7 7,6 0 0 8 5 N 1011,0 - 0,0
20.05.2019 23:00:00 14,4 11,2 0 0 6 3 N 1010,9 13 0,0
20.05.2019 22:00:00 18,3 11,8 3 2 13 7 ESE 1010,7 30 0,0
20.05.2019 21:00:00 20,2 12,7 4 2 15 8 SE 1010,5 30 0,0
20.05.2019 20:00:00 21,9 13,0 9 5 19 11 ESE 1009,7 23 0,0
20.05.2019 19:00:00 22,7 12,9 11 6 21 11 ESE 1009,4 17 0,0
20.05.2019 18:00:00 23,6 12,6 6 4 22 12 SE 1009,7 16 0,0
20.05.2019 17:00:00 23,5 12,8 6 3 18 10 SSE 1009,8 12 0,0
20.05.2019 16:00:00 24,0 12,9 6 3 18 10 SE 1009,9 16 0,0
20.05.2019 15:00:00 23,5 12,5 8 4 22 12 ESE 1010,1 13 0,0
20.05.2019 14:00:00 21,8 12,4 13 7 21 11 ENE 1010,4 30 0,0
20.05.2019 13:00:00 21,5 11,8 10 5 19 10 ENE 1010,3 34 0,0
20.05.2019 12:00:00 20,6 11,5 12 7 23 12 ENE 1010,6 37 0,0
20.05.2019 11:00:00 19,1 10,9 11 6 20 11 ENE 1010,8 22 0,0
20.05.2019 10:00:00 16,8 10,4 13 7 27 15 E 1011,0 34 0,0
20.05.2019 09:00:00 16,5 10,6 16 9 26 14 E 1011,0 25 0,0
20.05.2019 08:00:00 15,0 10,8 13 7 20 11 E 1011,0 26 0,0
20.05.2019 07:00:00 13,9 11,1 8 4 18 10 ENE 1011,1 18 0,0
20.05.2019 06:00:00 13,7 11,4 6 3 12 6 NE 1011,3 12 0,0
20.05.2019 05:00:00 13,4 11,5 6 3 15 8 NE 1011,6 6 0,0
20.05.2019 04:00:00 13,7 11,7 7 4 10 5 ENE 1012,0 5 0,0
20.05.2019 03:00:00 13,1 11,2 3 2 6 3 NNE 1012,5 - 0,0
20.05.2019 02:00:00 13,7 11,4 4 2 7 4 ENE 1012,7 - 0,0
20.05.2019 01:00:00 14,2 11,9 3 2 6 3 ENE 1013,1 9 0,0
20.05.2019 00:00:00 14,8 12,3 0 0 4 2 N 1013,4 2,6 0,0
19.05.2019 23:00:00 15,4 12,2 0 0 5 3 N 1013,4 15 0,0
19.05.2019 22:00:00 16,9 12,8 0 0 8 4 N 1013,3 26 0,0
19.05.2019 21:00:00 18,1 11,9 4 2 9 5 NNW 1013,1 26 0,0
19.05.2019 20:00:00 19,1 12,1 2 1 9 5 NNE 1013,2 32 0,0
19.05.2019 19:00:00 19,0 12,5 6 3 10 6 NE 1013,1 25 0,0
19.05.2019 18:00:00 19,1 13,1 7 4 14 8 NNE 1013,4 18 0,0
19.05.2019 17:00:00 19,7 13,4 6 4 13 7 NNE 1013,5 27 0,0
19.05.2019 16:00:00 19,5 12,5 4 2 11 6 NW 1013,7 31 0,0
19.05.2019 15:00:00 17,7 11,7 4 2 13 7 N 1014,0 33 0,0
19.05.2019 14:00:00 17,2 12,5 8 5 13 7 W 1014,3 27 0,0
19.05.2019 13:00:00 15,7 11,1 3 2 8 5 W 1014,2 27 0,0
19.05.2019 12:00:00 15,1 10,7 2 1 7 4 WSW 1014,1 34 0,0
19.05.2019 11:00:00 13,9 9,9 0 0 5 3 N 1014,0 21 0,0
19.05.2019 10:00:00 12,7 9,9 3 2 5 3 NW 1013,9 10 0,0
19.05.2019 09:00:00 12,2 9,8 2 1 6 3 E 1013,6 7 0,0
19.05.2019 08:00:00 11,6 8,8 0 0 10 6 N 1013,3 2,0 0,0
19.05.2019 07:00:00 11,5 9,6 6 3 10 5 E 1013,3 6 0,0
19.05.2019 06:00:00 11,1 8,0 3 2 5 3 NNW 1013,2 37 0,0
19.05.2019 05:00:00 9,9 7,0 0 0 4 2 N 1013,4 16 0,0
19.05.2019 04:00:00 10,6 7,3 0 0 6 4 N 1013,4 34 0,0
19.05.2019 03:00:00 10,8 7,3 3 2 13 7 E 1013,2 42 0,0
19.05.2019 02:00:00 10,9 7,6 8 4 32 18 E 1013,3 50 0,2
19.05.2019 01:00:00 11,2 8,1 10 5 25 13 E 1013,3 9 2,4
19.05.2019 00:00:00 12,3 8,2 5 3 14 7 E 1014,3 38 0,0
18.05.2019 23:00:00 12,0 8,8 5 3 19 10 NE 1015,0 39 1,2
18.05.2019 22:00:00 13,3 8,2 7 4 17 9 E 1015,3 29 1,2
18.05.2019 21:00:00 17,4 5,7 11 6 31 17 E 1014,7 50 0,0
18.05.2019 20:00:00 18,2 5,7 13 7 24 13 E 1014,8 49 0,0
18.05.2019 19:00:00 19,4 7,2 16 9 29 16 E 1014,8 44 0,0
18.05.2019 18:00:00 19,2 8,2 16 9 28 15 E 1015,3 45 0,0
18.05.2019 17:00:00 20,6 9,5 14 8 30 16 ESE 1015,6 37 0,0
18.05.2019 16:00:00 20,8 9,4 14 8 29 16 ESE 1016,1 37 0,0
18.05.2019 15:00:00 20,9 8,5 15 8 27 14 ESE 1016,3 42 0,0
18.05.2019 14:00:00 20,8 8,1 15 8 31 17 E 1016,6 34 0,0
18.05.2019 13:00:00 20,0 8,3 17 9 31 17 E 1017,0 45 0,0
18.05.2019 12:00:00 19,0 6,8 14 7 28 15 E 1017,3 33 0,0
18.05.2019 11:00:00 16,6 6,4 10 6 22 12 NE 1017,7 40 0,0
18.05.2019 10:00:00 16,0 6,4 14 7 22 12 ENE 1018,1 43 0,0
18.05.2019 09:00:00 15,1 5,6 10 6 18 10 E 1018,2 35 0,0
18.05.2019 08:00:00 13,0 5,4 9 5 18 10 ENE 1018,2 50 0,0
18.05.2019 07:00:00 12,4 4,6 7 4 13 7 NE 1018,3 44 0,0
18.05.2019 06:00:00 11,5 4,0 5 3 12 6 ENE 1018,7 50 0,0
18.05.2019 05:00:00 10,0 3,1 8 4 14 8 ENE 1018,9 50 0,0

tt = Température de l'air
td = dewpoint
ff = Vitesse du vent
fx = gusts
dd = Direction du vent
ppp = reduced air pressure
vv = visibility
rr = Quantités de précipitations

stations d'obs. à proximité